Temperature
5 5 5 5 5 5 5 5 5 5 5 5 5 5 5 5 6 6 6 6 6 6 6 6 6 6 6 6 6 6 6 6 6 6 6 6 6 6 6 6 7 6 6
5 4 4 4 4 4 4 4 4 5 4 4 5 5 5 5 5 5 5 5 5 6 6 6 6 6 6 6 5 5 5 5 5 5 5 4 5 5 5 6 6 6 6
4 4 4 4 4 4 4 4 4 4 4 4 4 4 4 4 4 4 4 5 5 5 5 5 5 5 5 5 5 5 5 4 4 4 4 4 4 4 4 5 5 5 5
4 4 3 3 3 3 3 3 3 3 3 3 3 3 3 3 4 4 4 4 4 4 4 4 4 4 4 4 4 4 4 4 4 3 3 3 3 3 3 4 4 4 4
4 3 3 3 3 3 3 3 3 3 3 3 3 3 3 3 3 3 3 3 3 3 3 3 4 3 3 3 3 3 3 3 3 3 3 3 3 3 3 2 3 3 4
3 3 2 2 2 2 2 2 2 2 2 2 2 2 2 2 2 2 2 3 3 3 3 3 3 3 3 3 3 3 3 2 2 2 2 2 2 2 2 2 2 2 3
3 2 2 2 2 2 2 2 2 2 2 2 2 2 2 1 2 2 2 2 2 2 2 2 2 2 2 2 2 2 2 2 1 1 1 1 1 2 1 1 1 1 1
2 2 2 1 1 1 1 1 1 1 1 1 1 1 1 1 1 1 1 1 1 1 1 1 1 1 1 1 1 1 1 1 1 1 1 1 1 1 1 1 0 -0 0
2 1 1 1 1 1 1 1 1 1 1 0 0 0 0 1 0 0 1 1 1 1 1 1 1 1 1 1 1 1 0 0 0 0 0 0 0 0 0 0 0 -0 -1
1 1 1 1 0 0 0 0 0 -0 -0 -0 -0 -0 -0 -0 -0 -0 -0 0 0 0 0 0 0 0 0 0 0 -0 -0 -0 -0 -0 -0 -0 -0 -0 -0 -0 -0 -0 -0
0 0 0 0 -0 -0 -0 -0 -0 -1 -1 -1 -1 -1 -1 -1 -1 -1 -1 -1 -1 -1 -1 -0 -1 -1 -1 -1 -1 -1 -1 -1 -1 -1 -1 -1 -1 -1 -1 -1 -1 -1 -1
-0 -0 -1 -1 -1 -1 -1 -1 -1 -1 -1 -1 -2 -2 -2 -2 -2 -2 -2 -2 -1 -1 -1 -1 -1 -1 -1 -1 -1 -2 -2 -2 -2 -2 -2 -2 -2 -2 -2 -2 -2 -2 -1
-1 -1 -1 -1 -2 -2 -2 -2 -2 -2 -2 -2 -2 -2 -2 -2 -2 -2 -2 -2 -2 -2 -2 -2 -2 -2 -2 -2 -2 -2 -3 -3 -2 -2 -2 -2 -2 -2 -2 -2 -2 -2 -2
-2 -2 -2 -2 -2 -2 -2 -2 -3 -3 -3 -3 -3 -3 -3 -3 -3 -3 -3 -3 -3 -3 -3 -3 -3 -3 -3 -3 -3 -3 -3 -3 -3 -3 -3 -3 -3 -3 -3 -3 -3 -3 -3
-3 -3 -3 -3 -3 -3 -3 -3 -3 -3 -4 -4 -4 -4 -4 -4 -4 -4 -4 -4 -4 -4 -3 -3 -3 -3 -4 -4 -4 -4 -4 -4 -4 -4 -4 -4 -4 -4 -4 -4 -4 -4 -4
-4 -4 -4 -3 -3 -3 -3 -4 -4 -4 -4 -4 -4 -4 -4 -4 -4 -4 -5 -4 -4 -4 -4 -4 -4 -4 -4 -5 -5 -5 -5 -5 -5 -5 -5 -5 -5 -5 -5 -5 -4 -4 -4
-4 -4 -4 -4 -4 -4 -4 -4 -4 -5 -5 -5 -5 -5 -5 -5 -5 -5 -5 -5 -5 -5 -5 -5 -5 -5 -5 -5 -6 -6 -6 -6 -6 -6 -6 -6 -5 -5 -5 -5 -5 -5 -5
-4 -5 -5 -5 -5 -5 -5 -5 -5 -6 -6 -6 -6 -6 -6 -6 -6 -6 -6 -6 -6 -6 -6 -6 -6 -6 -6 -6 -6 -6 -6 -7 -7 -6 -6 -6 -6 -6 -6 -6 -6 -5 -5
-5 -5 -5 -5 -6 -6 -6 -6 -6 -6 -7 -7 -7 -7 -7 -6 -7 -7 -7 -7 -7 -7 -7 -7 -7 -7 -7 -7 -7 -7 -7 -7 -7 -7 -7 -7 -7 -7 -7 -7 -6 -6 -6
-5 -6 -6 -6 -7 -7 -7 -7 -7 -7 -7 -7 -7 -7 -7 -7 -7 -7 -7 -8 -8 -8 -8 -8 -8 -8 -8 -8 -8 -8 -8 -8 -8 -8 -8 -8 -8 -7 -7 -7 -7 -7 -6
-6 -7 -7 -7 -7 -7 -7 -7 -7 -8 -8 -8 -8 -8 -8 -8 -8 -8 -8 -8 -9 -9 -9 -9 -9 -9 -9 -8 -8 -9 -9 -8 -8 -8 -8 -8 -8 -8 -8 -8 -7 -7 -7
-7 -8 -8 -8 -8 -8 -8 -8 -8 -9 -9 -9 -9 -9 -9 -9 -9 -9 -9 -9 -9 -10 -10 -10 -10 -9 -9 -9 -9 -9 -9 -9 -9 -9 -9 -9 -9 -9 -8 -8 -8 -8 -8
-8 -8 -9 -9 -9 -9 -9 -9 -9 -9 -9 -9 -10 -10 -10 -10 -10 -10 -10 -10 -10 -10 -11 -11 -10 -10 -10 -10 -10 -10 -10 -10 -10 -10 -10 -10 -9 -9 -9 -9 -9 -8 -8
-9 -9 -9 -9 -10 -10 -10 -10 -10 -10 -10 -10 -10 -11 -11 -11 -11 -11 -11 -11 -11 -11 -11 -11 -11 -11 -11 -11 -11 -10 -10 -10 -10 -10 -10 -10 -10 -10 -9 -9 -9 -9 -9
-10 -10 -10 -10 -10 -11 -11 -11 -11 -11 -11 -11 -11 -11 -12 -12 -12 -12 -12 -12 -12 -12 -12 -12 -12 -12 -12 -12 -12 -11 -11 -11 -11 -11 -11 -11 -11 -10 -10 -10 -10 -10 -9
-11 -11 -11 -11 -11 -11 -12 -12 -12 -12 -12 -12 -12 -12 -12 -12 -12 -12 -12 -12 -13 -13 -13 -13 -13 -13 -13 -13 -12 -12 -12 -12 -12 -12 -11 -11 -11 -11 -11 -11 -11 -10 -10
Wind_Speed
6 5 5 4 4 4 3 4 3 3 2 1 1 1 1 1 2 3 4 5 4 4 5 4 3 3 2 2 2 2 3 2 2 2 2 2 2 2 2 2 3 4 3
5 6 5 4 4 4 3 3 3 3 3 1 1 1 1 1 2 2 4 4 4 4 4 4 2 2 2 2 2 2 2 1 1 1 1 0 1 2 2 1 1 2 3
6 6 5 4 4 4 4 3 3 3 3 2 2 1 1 1 1 1 1 3 3 3 3 3 3 2 3 2 2 2 2 2 1 1 2 2 2 1 1 1 0 1 1
5 5 5 4 4 3 3 4 4 3 3 3 3 2 2 2 1 1 1 2 2 2 2 2 2 2 2 3 2 1 1 2 2 1 1 0 1 1 1 1 1 1 1
6 5 5 4 3 3 3 3 3 3 2 3 3 3 2 1 1 2 2 2 2 2 2 2 2 2 2 2 2 1 1 1 1 1 1 0 1 1 2 2 2 2 2
6 5 4 4 3 3 3 3 3 2 2 2 2 2 2 2 3 2 2 2 2 1 1 1 1 1 1 2 2 2 2 1 1 1 1 1 1 1 1 2 2 3 3
5 5 5 4 4 4 3 2 3 2 2 2 2 2 2 2 3 3 3 2 2 1 2 1 1 1 1 1 2 2 2 2 2 2 2 2 2 2 1 2 2 3 3
4 4 4 4 3 3 3 3 3 2 2 2 2 2 2 1 1 2 2 3 2 2 2 1 1 1 2 2 2 2 2 3 3 3 2 2 2 2 2 3 2 3 3
3 4 3 3 3 3 3 3 3 3 3 3 2 2 2 1 1 1 1 1 2 2 2 2 2 2 2 2 3 3 3 3 3 3 3 3 2 2 2 3 4 3 4
3 3 3 2 3 3 3 3 3 3 2 2 2 2 2 2 1 1 1 1 2 2 3 3 3 3 2 3 3 3 3 3 3 3 3 3 2 2 2 3 3 3 4
3 2 2 2 2 2 2 3 2 2 2 2 1 1 1 1 1 1 1 1 2 2 3 3 3 3 3 3 3 3 4 4 4 3 4 4 3 3 3 3 3 4 3
2 2 1 1 1 2 2 2 2 2 2 2 1 1 1 1 1 1 1 2 2 2 3 3 3 3 3 3 3 4 4 4 5 4 4 5 4 4 4 4 4 4 4
1 1 1 1 2 1 2 2 2 2 1 1 1 1 2 2 2 2 1 2 2 2 2 3 3 3 3 4 4 4 4 5 5 5 5 5 5 5 4 5 5 5 5
2 2 2 2 2 2 2 2 2 1 1 1 1 2 2 2 2 2 2 2 2 2 2 3 3 4 4 4 4 4 5 5 4 5 5 5 6 6 6 6 6 5 5
2 2 3 2 1 1 1 1 2 1 2 2 2 2 2 2 2 2 2 2 2 2 2 3 3 4 4 4 4 5 5 4 4 4 5 5 7 8 7 6 5 5 5
3 3 3 2 2 2 1 1 2 1 1 2 2 2 2 2 2 2 2 2 2 2 2 2 3 4 4 6 7 6 4 4 4 5 5 5 7 9 10 10 10 9 7
3 3 3 2 2 2 2 2 1 1 1 2 2 2 2 2 2 2 2 2 2 2 2 2 3 4 5 7 8 8 4 4 5 5 5 5 6 8 6 9 10 10 12
2 2 2 1 1 1 1 1 0 1 1 1 1 1 2 2 2 2 2 2 2 2 3 3 3 4 5 7 8 7 4 4 5 6 6 6 6 7 7 7 7 7 8
1 1 1 1 1 1 1 1 0 0 1 1 1 2 2 2 2 2 2 2 2 3 3 3 3 4 5 7 7 7 3 4 5 5 6 6 6 10 11 8 7 8 8
1 1 1 1 1 1 1 1 0 1 1 2 2 2 2 2 3 3 3 2 3 3 3 4 3 4 4 7 7 6 3 4 4 4 5 8 8 11 11 7 7 8 7
2 2 2 1 1 1 1 1 1 1 2 2 2 2 2 2 2 2 2 2 2 2 3 4 4 4 5 6 7 6 3 3 3 4 4 5 10 11 11 9 7 10 8
2 2 2 1 1 1 1 0 1 2 2 2 3 3 2 2 2 1 1 2 2 2 3 3 3 3 4 5 6 7 6 5 3 4 4 6 10 11 11 9 9 11 8
1 1 1 1 2 1 1 0 1 1 2 2 2 2 2 2 2 1 1 1 2 2 3 3 3 3 3 4 7 7 7 7 4 4 7 9 10 10 8 9 10 8 5
1 1 1 1 1 2 1 1 1 1 1 1 2 2 2 2 2 2 2 2 2 2 3 3 3 3 4 3 4 3 4 6 6 5 7 9 9 7 7 6 5 4 4
1 1 1 1 1 2 2 2 1 1 1 1 2 2 2 2 2 2 2 3 2 3 3 3 3 3 4 6 8 5 4 4 4 4 3 3 3 3 3 3 3 3 3
1 1 1 1 1 2 2 2 1 1 1 2 2 2 2 2 2 2 3 5 5 7 8 7 6 6 8 9 10 10 8 8 7 4 3 3 3 3 3 4 4 4 3
Wind_Direction
174 162 157 155 148 140 143 147 139 134 127 134 154 151 135 100 78 64 71 68 64 66 70 71 75 67 94 99 104 108 108 98 100 73 41 12 7 27 16 64 87 83 91
174 171 165 161 163 164 165 159 150 148 148 152 170 164 144 134 107 77 75 73 69 70 75 70 85 87 100 100 97 109 114 132 133 124 119 77 353 354 342 23 78 87 89
188 181 175 173 168 169 175 171 163 159 160 142 124 102 107 113 101 110 100 67 68 72 71 80 83 91 111 132 121 113 127 163 201 112 136 156 207 295 304 292 339 66 61
179 179 176 170 172 175 169 168 162 163 164 150 154 158 174 182 189 176 150 96 84 79 79 87 92 97 103 128 143 98 125 154 181 237 334 281 166 181 266 304 300 320 298
173 176 174 169 167 160 158 162 155 159 167 168 177 187 181 189 161 152 152 146 123 109 102 94 91 100 106 127 130 122 147 154 189 201 288 316 343 324 197 246 275 297 274
168 165 157 146 146 146 150 157 166 171 168 173 183 187 188 189 170 169 180 177 167 151 149 140 115 116 112 136 151 171 182 198 204 221 221 208 195 210 217 236 247 271 279
162 159 156 158 154 153 155 159 167 179 175 176 183 196 198 193 187 183 190 191 191 202 185 153 147 154 158 182 182 192 201 209 213 217 232 233 236 228 231 223 255 279 286
154 156 158 164 166 166 163 163 173 182 181 181 189 195 199 197 203 202 189 194 200 201 192 181 201 212 212 218 205 207 222 220 218 230 233 234 237 231 221 218 225 272 280
145 148 149 159 170 174 177 182 177 180 185 188 186 190 189 180 206 229 218 196 187 198 194 202 213 224 221 223 210 216 223 223 225 223 230 239 242 229 229 225 213 218 253
149 148 158 172 173 172 172 170 169 185 192 191 195 195 188 185 197 200 235 226 195 200 196 200 210 217 220 225 220 223 224 225 230 226 222 237 248 240 230 225 236 240 244
192 171 171 175 163 155 162 166 175 178 189 202 205 192 196 195 183 202 229 246 224 198 200 202 208 213 213 216 219 223 220 225 234 233 228 236 238 244 244 235 237 244 245
192 177 169 158 152 165 175 180 182 185 200 203 202 197 199 196 188 208 233 249 249 225 214 213 214 219 219 219 220 227 225 223 228 231 229 237 238 240 244 238 242 246 242
181 187 173 188 201 206 201 199 195 200 201 200 201 204 204 202 209 221 238 245 254 245 232 220 221 225 227 227 229 229 227 227 227 228 229 234 233 239 242 241 246 250 248
199 209 208 213 212 209 200 200 202 198 191 201 211 223 223 218 220 227 235 244 254 251 242 238 233 232 236 236 233 235 231 230 232 234 233 234 233 234 235 238 240 244 241
233 232 229 220 213 209 211 207 208 200 194 204 219 236 239 230 224 227 237 243 256 262 256 254 243 239 238 238 233 232 234 234 240 244 244 244 248 248 244 242 236 235 238
243 240 221 209 211 217 222 229 224 213 204 217 231 245 247 243 231 231 241 247 255 260 255 257 248 241 250 257 256 253 236 236 240 247 251 253 253 253 254 254 251 243 237
252 241 223 214 219 224 214 223 225 209 216 237 246 254 256 259 254 250 248 254 250 250 244 248 252 251 256 261 261 260 251 234 236 241 245 254 256 259 254 254 257 257 255
248 251 224 210 213 220 204 173 148 197 226 247 270 285 280 276 270 251 251 259 259 247 246 246 251 259 271 272 265 263 255 243 242 241 239 244 249 254 256 253 253 255 256
210 204 218 196 157 166 144 117 75 303 255 271 295 303 297 287 279 270 265 258 257 257 255 248 248 255 270 279 277 274 249 249 250 251 250 250 249 255 260 257 253 257 262
92 108 93 89 113 126 114 108 21 335 307 307 304 299 292 276 274 269 266 255 255 259 265 268 261 256 261 277 286 286 256 259 260 256 256 256 259 259 260 257 250 252 257
68 92 96 78 42 61 90 72 349 316 318 325 324 310 298 283 276 269 258 250 262 265 265 275 275 265 266 278 283 289 280 262 263 264 265 265 268 269 265 264 255 259 262
58 67 78 46 19 45 92 46 318 330 342 337 327 320 319 310 303 285 261 246 245 255 263 271 283 282 278 284 283 286 288 285 263 264 271 273 274 275 273 271 269 271 269
67 55 71 36 13 30 76 55 326 348 347 338 330 327 327 320 312 288 262 251 236 245 266 272 284 294 296 286 289 290 293 292 286 274 282 285 282 282 278 278 278 273 262
61 60 54 25 355 11 21 1 340 2 3 338 326 323 324 320 317 307 292 274 256 254 268 276 281 292 294 293 293 288 288 292 291 285 282 284 284 287 290 289 289 284 265
39 46 27 348 337 355 353 350 0 11 353 325 314 314 316 314 314 306 286 278 259 256 260 258 265 277 284 290 297 301 291 289 286 298 289 282 282 283 293 295 294 294 296
19 14 5 349 340 348 343 345 355 5 336 310 308 306 307 309 310 311 311 301 292 290 287 285 285 283 285 293 297 299 299 297 294 295 289 289 287 282 283 284 287 290 289
Height
1486 1487 1488 1489 1490 1491 1493 1494 1496 1497 1498 1499 1500 1502 1503 1505 1506 1507 1508 1510 1510 1512 1513 1514 1515 1516 1517 1519 1520 1522 1523 1524 1526 1527 1528 1530 1531 1532 1534 1535 1535 1536 1538
1482 1483 1485 1486 1487 1488 1490 1491 1493 1494 1495 1496 1497 1499 1500 1502 1503 1504 1505 1507 1508 1509 1510 1511 1512 1513 1514 1516 1517 1518 1519 1521 1523 1524 1525 1527 1529 1529 1531 1532 1533 1534 1535
1478 1480 1482 1483 1484 1485 1487 1488 1490 1491 1492 1493 1495 1496 1497 1499 1500 1501 1502 1503 1505 1506 1507 1508 1509 1510 1511 1512 1514 1515 1516 1518 1520 1522 1523 1525 1524 1526 1527 1528 1529 1530 1531
1475 1477 1478 1480 1481 1483 1484 1486 1486 1488 1489 1490 1491 1492 1493 1494 1495 1497 1498 1500 1501 1502 1504 1505 1506 1507 1508 1509 1511 1512 1514 1515 1516 1518 1520 1522 1522 1523 1523 1524 1526 1527 1528
1472 1474 1475 1477 1478 1480 1481 1482 1484 1485 1486 1487 1488 1489 1490 1491 1492 1494 1495 1496 1497 1499 1500 1501 1502 1504 1505 1505 1507 1509 1511 1512 1513 1515 1516 1517 1519 1519 1519 1519 1521 1523 1524
1470 1471 1473 1474 1475 1477 1478 1479 1481 1482 1483 1484 1485 1486 1486 1487 1488 1489 1490 1492 1493 1495 1496 1497 1499 1500 1501 1502 1504 1506 1507 1508 1510 1511 1513 1513 1514 1515 1516 1516 1516 1517 1519
1467 1469 1470 1471 1472 1474 1475 1476 1477 1478 1479 1481 1481 1482 1483 1483 1484 1485 1486 1488 1489 1490 1492 1493 1495 1496 1498 1499 1500 1502 1503 1505 1506 1507 1509 1510 1511 1512 1513 1513 1513 1513 1514
1465 1466 1467 1469 1470 1471 1472 1473 1474 1475 1476 1477 1478 1479 1480 1480 1480 1481 1482 1484 1485 1486 1488 1489 1491 1492 1493 1495 1496 1498 1499 1501 1502 1503 1504 1506 1507 1508 1508 1510 1510 1509 1509
1463 1464 1465 1466 1467 1468 1469 1470 1471 1472 1473 1474 1475 1475 1476 1476 1477 1478 1479 1480 1481 1482 1484 1485 1486 1488 1489 1490 1492 1493 1495 1496 1497 1498 1500 1501 1502 1503 1504 1505 1506 1507 1505
1461 1462 1463 1464 1464 1465 1466 1466 1467 1468 1469 1470 1470 1471 1472 1472 1473 1474 1474 1476 1477 1478 1479 1480 1482 1483 1484 1485 1487 1488 1490 1491 1492 1493 1494 1496 1497 1498 1499 1500 1501 1502 1501
1459 1459 1460 1461 1462 1462 1462 1463 1463 1464 1465 1466 1466 1467 1468 1469 1469 1470 1471 1472 1473 1474 1475 1476 1477 1478 1479 1480 1481 1483 1484 1485 1486 1488 1489 1490 1491 1492 1493 1494 1495 1496 1496
1457 1458 1458 1458 1458 1458 1459 1459 1460 1460 1461 1462 1463 1464 1465 1465 1465 1466 1467 1468 1468 1469 1470 1471 1472 1473 1474 1475 1476 1477 1478 1479 1480 1482 1483 1484 1485 1486 1488 1488 1489 1490 1491
1455 1455 1455 1455 1455 1455 1455 1456 1456 1456 1457 1458 1459 1460 1461 1461 1462 1462 1463 1463 1464 1465 1466 1467 1467 1468 1469 1470 1470 1472 1473 1474 1475 1476 1477 1478 1479 1480 1481 1482 1483 1484 1485
1452 1452 1452 1452 1452 1452 1452 1452 1452 1453 1453 1454 1455 1455 1456 1457 1457 1458 1459 1459 1459 1460 1461 1462 1463 1463 1464 1465 1465 1466 1467 1468 1469 1470 1471 1472 1473 1474 1475 1475 1477 1478 1478
1449 1449 1448 1448 1448 1449 1449 1449 1449 1449 1449 1450 1450 1451 1452 1453 1453 1454 1454 1455 1455 1455 1456 1457 1458 1458 1459 1460 1460 1461 1462 1463 1463 1464 1465 1466 1467 1468 1469 1469 1470 1471 1472
1446 1445 1445 1445 1445 1445 1445 1445 1445 1445 1446 1446 1446 1447 1447 1448 1449 1449 1450 1450 1450 1451 1452 1452 1453 1453 1454 1455 1456 1456 1456 1457 1457 1458 1459 1459 1460 1461 1463 1463 1464 1465 1466
1443 1442 1442 1441 1441 1441 1441 1441 1441 1442 1442 1442 1442 1443 1443 1444 1444 1444 1445 1445 1446 1446 1447 1447 1448 1448 1449 1449 1450 1451 1451 1451 1451 1452 1452 1453 1454 1455 1456 1456 1457 1458 1459
1439 1439 1438 1438 1438 1438 1438 1438 1438 1438 1438 1438 1438 1439 1439 1439 1439 1440 1440 1440 1441 1441 1442 1442 1442 1443 1443 1444 1444 1445 1445 1445 1445 1445 1446 1447 1447 1448 1449 1450 1450 1450 1451
1437 1437 1436 1435 1435 1435 1435 1435 1435 1435 1434 1434 1434 1434 1435 1434 1435 1435 1435 1435 1436 1436 1437 1437 1438 1437 1438 1439 1439 1439 1439 1438 1438 1439 1440 1441 1441 1442 1444 1444 1443 1443 1444
1434 1434 1433 1432 1432 1432 1432 1431 1431 1431 1431 1430 1430 1431 1431 1431 1430 1430 1431 1431 1431 1432 1432 1432 1433 1433 1433 1433 1434 1434 1434 1433 1433 1433 1434 1435 1436 1436 1437 1438 1437 1436 1437
1431 1431 1430 1430 1429 1429 1429 1429 1429 1428 1428 1427 1427 1427 1427 1427 1426 1426 1426 1427 1427 1427 1428 1428 1428 1428 1428 1428 1429 1429 1429 1428 1428 1428 1428 1429 1430 1430 1431 1432 1431 1431 1432
1429 1429 1428 1428 1427 1427 1427 1426 1426 1426 1425 1424 1424 1424 1423 1423 1423 1422 1422 1423 1423 1423 1423 1423 1423 1424 1424 1424 1424 1424 1425 1424 1424 1423 1423 1423 1424 1424 1425 1425 1425 1426 1426
1427 1427 1426 1426 1425 1425 1425 1424 1424 1423 1422 1422 1421 1420 1420 1420 1419 1419 1419 1419 1419 1419 1419 1419 1419 1419 1419 1419 1420 1420 1420 1420 1419 1419 1418 1418 1418 1418 1418 1419 1419 1420 1420
1425 1425 1424 1423 1423 1423 1422 1422 1421 1421 1420 1419 1418 1418 1417 1417 1416 1416 1416 1416 1416 1415 1416 1415 1415 1415 1415 1415 1415 1415 1415 1415 1414 1414 1413 1414 1413 1413 1413 1413 1413 1413 1414
1423 1423 1422 1421 1421 1420 1420 1419 1419 1418 1417 1417 1416 1416 1415 1414 1414 1413 1413 1413 1413 1413 1413 1413 1412 1411 1411 1411 1412 1411 1410 1410 1409 1409 1409 1408 1408 1407 1407 1407 1407 1407 1407
1422 1421 1420 1420 1419 1418 1418 1417 1416 1416 1415 1414 1414 1413 1412 1412 1411 1410 1410 1410 1410 1410 1410 1410 1409 1408 1409 1408 1408 1407 1406 1406 1405 1405 1403 1403 1402 1402 1402 1402 1401 1401 1401